Location: Unspecified
(0.0000°N, 0.0000°E)
Time: 03:51:56
(UTC+00:00)

A-11 Canister half - Pass Details

Date: 17 April 2026
Orbit: 1523 x 1685 km, 47.3° (Epoch: 13 May)

Event Time Altitude Azimuth Distance (km) Brightness Sun altitude
Rises 21:25:06 0° 222° (SW) 4,747 11.8 -50.2°
Reaches altitude 10° 21:28:08 10° 222° (SW) 3,782 11.2 -50.9°
Enters shadow 21:29:24 15° 223° (SW) 3,391 10.9 -51.2°
Maximum altitude 21:37:48 82° 309° (NW) 1,635 - -53.2°
Drops below altitude 10° 21:47:48 10° 36° (NE) 3,899 - -55.6°
Sets 21:50:59 0° 38° (NE) 4,900 - -56.3°
